TIANLIAN 2-05

Last updated on Mon Oct 20 2025 00:02:51 GMT+0000 (Coordinated Universal Time)

1 63662U 25084A 25292.27130390 .00000112 00000+0 00000+0 0 9999 2 63662 5.0654 282.5103 0000862 7.6901 215.9190 1.00269388 1965
UTC large
Height (km)
Speed (km/s)
/
Latitude / Longitude
Inclination (degrees)
Orbital Period (minutes)
Azimuth
Elevation
Range (km)
Doppler Factor

Next 0 passes for location: London (51.5072 / 0.1276)

Sorry there are no passes over London.